TimeCDT,TemperatureF,Dew PointF,Humidity,Sea Level PressureIn,VisibilityMPH,Wind Direction,Wind SpeedMPH,Gust SpeedMPH,PrecipitationIn,Events,Conditions,WindDirDegrees,DateUTC
12:15 AM,67.1,66.6,98,29.91,7.0,Calm,Calm,-,N/A,,Overcast,0,2013-07-02 05:15:00
12:35 AM,67.1,66.6,98,29.90,7.0,SW,4.6,-,N/A,,Overcast,230,2013-07-02 05:35:00
12:55 AM,67.1,66.6,98,29.90,7.0,Calm,Calm,-,N/A,,Overcast,0,2013-07-02 05:55:00
1:15 AM,67.3,66.9,99,29.90,7.0,Calm,Calm,-,N/A,Rain,Light Rain,0,2013-07-02 06:15:00
1:35 AM,67.1,66.7,99,29.89,7.0,Calm,Calm,-,N/A,,Overcast,0,2013-07-02 06:35:00
1:55 AM,67.1,66.6,98,29.89,7.0,Calm,Calm,-,N/A,,Overcast,0,2013-07-02 06:55:00
2:15 AM,66.4,66.2,99,29.88,5.0,Calm,Calm,-,N/A,,Scattered Clouds,0,2013-07-02 07:15:00
2:35 AM,66.2,66.0,99,29.88,2.0,Calm,Calm,-,N/A,,Clear,0,2013-07-02 07:35:00
2:55 AM,64.9,64.9,100,29.88,0.2,Calm,Calm,-,N/A,Fog,Fog,0,2013-07-02 07:55:00
3:15 AM,64.9,64.9,100,29.89,0.2,Calm,Calm,-,N/A,Fog,Fog,0,2013-07-02 08:15:00
3:35 AM,64.4,64.4,100,29.89,0.2,Calm,Calm,-,N/A,Fog,Fog,0,2013-07-02 08:35:00
3:55 AM,64.4,64.4,100,29.89,0.5,Calm,Calm,-,N/A,Fog,Fog,0,2013-07-02 08:55:00
4:15 AM,64.6,64.6,100,29.90,0.5,Calm,Calm,-,N/A,Fog,Fog,0,2013-07-02 09:15:00
4:35 AM,65.5,65.5,100,29.90,1.5,Calm,Calm,-,N/A,,Overcast,0,2013-07-02 09:35:00
4:55 AM,66.0,66.0,100,29.91,3.0,Calm,Calm,-,N/A,,Overcast,0,2013-07-02 09:55:00
5:15 AM,66.2,66.2,100,29.90,2.5,Calm,Calm,-,N/A,,Overcast,0,2013-07-02 10:15:00
5:35 AM,66.2,66.2,100,29.91,0.8,SSE,3.5,-,N/A,,Overcast,160,2013-07-02 10:35:00
5:55 AM,66.2,66.2,100,29.92,0.5,Calm,Calm,-,N/A,Fog,Fog,0,2013-07-02 10:55:00
6:15 AM,66.4,66.4,100,29.92,1.5,SSE,4.6,-,N/A,,Overcast,150,2013-07-02 11:15:00
6:35 AM,66.7,66.7,100,29.93,1.5,SSE,4.6,-,N/A,,Overcast,160,2013-07-02 11:35:00
6:55 AM,67.1,67.1,100,29.93,1.0,South,5.8,-,N/A,,Overcast,170,2013-07-02 11:55:00
7:15 AM,67.1,67.1,100,29.94,2.5,South,5.8,-,N/A,,Overcast,170,2013-07-02 12:15:00
7:35 AM,67.1,67.1,100,29.95,2.5,South,6.9,-,N/A,,Overcast,190,2013-07-02 12:35:00
7:55 AM,67.5,67.3,99,29.95,4.0,SSE,3.5,-,N/A,,Overcast,160,2013-07-02 12:55:00
8:15 AM,68.0,67.5,98,29.95,4.0,South,4.6,-,N/A,,Overcast,180,2013-07-02 13:15:00
8:35 AM,68.0,67.3,98,29.95,4.0,South,4.6,-,N/A,,Overcast,180,2013-07-02 13:35:00
9:15 AM,69.1,67.5,95,29.95,5.0,South,4.6,-,N/A,,Overcast,180,2013-07-02 14:15:00
9:35 AM,70.7,68.5,93,29.95,7.0,South,8.1,-,N/A,,Overcast,190,2013-07-02 14:35:00
9:55 AM,71.8,68.0,88,29.96,10.0,SSW,8.1,-,N/A,,Overcast,210,2013-07-02 14:55:00
10:15 AM,72.7,68.0,85,29.96,10.0,South,8.1,-,N/A,,Overcast,180,2013-07-02 15:15:00
10:35 AM,72.1,68.0,87,29.96,10.0,SW,4.6,-,N/A,,Overcast,220,2013-07-02 15:35:00
10:55 AM,68.4,66.4,93,29.96,1.8,WSW,5.8,-,0.15,Rain,Heavy Rain,250,2013-07-02 15:55:00
11:15 AM,71.6,68.2,89,29.96,10.0,SW,5.8,-,N/A,,Mostly Cloudy,230,2013-07-02 16:15:00
11:35 AM,71.6,67.8,88,29.97,10.0,SW,8.1,-,N/A,,Overcast,220,2013-07-02 16:35:00
11:55 AM,73.4,67.6,82,29.97,10.0,South,5.8,-,N/A,,Mostly Cloudy,190,2013-07-02 16:55:00
12:15 PM,75.2,68.2,79,29.97,10.0,South,5.8,-,N/A,,Scattered Clouds,180,2013-07-02 17:15:00
12:35 PM,73.8,68.0,82,29.97,10.0,WSW,12.7,-,N/A,Rain,Rain,240,2013-07-02 17:35:00
12:55 PM,74.1,68.9,84,29.97,10.0,SSW,5.8,-,N/A,,Overcast,210,2013-07-02 17:55:00
1:15 PM,77.2,69.6,77,29.96,10.0,South,6.9,-,N/A,,Scattered Clouds,190,2013-07-02 18:15:00
1:35 PM,78.3,67.8,70,29.96,10.0,SSW,6.9,-,N/A,,Scattered Clouds,210,2013-07-02 18:35:00
1:55 PM,77.5,66.0,68,29.95,10.0,SSW,9.2,-,N/A,,Overcast,210,2013-07-02 18:55:00
2:15 PM,79.3,65.5,62,29.95,10.0,SW,12.7,-,N/A,,Scattered Clouds,230,2013-07-02 19:15:00
2:35 PM,79.3,66.9,66,29.95,10.0,SW,10.4,-,N/A,,Scattered Clouds,220,2013-07-02 19:35:00
2:55 PM,78.8,67.1,67,29.95,10.0,SSW,8.1,-,N/A,,Mostly Cloudy,210,2013-07-02 19:55:00
3:15 PM,79.9,66.6,64,29.95,10.0,SW,11.5,-,N/A,,Scattered Clouds,230,2013-07-02 20:15:00
3:35 PM,81.0,67.3,63,29.95,10.0,WSW,12.7,-,N/A,,Mostly Cloudy,240,2013-07-02 20:35:00
3:55 PM,78.4,66.4,66,29.96,10.0,SW,10.4,-,N/A,,Mostly Cloudy,220,2013-07-02 20:55:00
4:15 PM,78.8,65.8,64,29.96,10.0,SW,9.2,-,N/A,,Mostly Cloudy,230,2013-07-02 21:15:00
4:35 PM,78.1,65.8,66,29.96,10.0,WSW,11.5,-,N/A,,Overcast,240,2013-07-02 21:35:00
4:55 PM,78.1,66.7,68,29.96,10.0,WSW,9.2,-,N/A,,Overcast,240,2013-07-02 21:55:00
5:15 PM,78.8,66.0,65,29.96,10.0,SSW,8.1,-,N/A,,Mostly Cloudy,210,2013-07-02 22:15:00
5:35 PM,79.5,66.2,64,29.96,10.0,WSW,12.7,17.3,N/A,,Mostly Cloudy,250,2013-07-02 22:35:00
5:55 PM,78.3,66.4,67,29.97,10.0,WSW,10.4,-,N/A,,Scattered Clouds,250,2013-07-02 22:55:00
6:15 PM,77.5,67.6,71,29.97,10.0,WSW,6.9,-,N/A,,Clear,240,2013-07-02 23:15:00
6:35 PM,77.2,66.2,69,29.98,10.0,WSW,10.4,-,N/A,,Scattered Clouds,250,2013-07-02 23:35:00
6:55 PM,76.6,67.1,72,29.98,10.0,WSW,6.9,-,N/A,,Clear,240,2013-07-02 23:55:00
7:15 PM,76.1,66.7,73,29.98,10.0,WSW,6.9,-,N/A,,Clear,240,2013-07-03 00:15:00
7:35 PM,75.0,66.7,75,29.98,10.0,SW,5.8,-,N/A,,Clear,230,2013-07-03 00:35:00
7:55 PM,73.9,66.6,78,29.99,10.0,SW,4.6,-,N/A,,Clear,220,2013-07-03 00:55:00
8:15 PM,71.6,67.1,86,29.99,10.0,SW,5.8,-,N/A,,Clear,220,2013-07-03 01:15:00
8:35 PM,71.1,66.9,87,30.00,10.0,WSW,4.6,-,N/A,,Clear,240,2013-07-03 01:35:00
8:55 PM,70.2,67.3,91,30.01,10.0,SW,4.6,-,N/A,,Clear,230,2013-07-03 01:55:00
9:15 PM,70.5,66.2,86,30.02,10.0,West,5.8,-,N/A,,Clear,280,2013-07-03 02:15:00
9:35 PM,69.8,66.2,88,30.03,10.0,West,5.8,-,N/A,,Clear,260,2013-07-03 02:35:00
9:55 PM,69.6,64.6,84,30.03,10.0,West,5.8,-,N/A,,Clear,270,2013-07-03 02:55:00
10:15 PM,68.7,64.4,86,30.03,10.0,West,5.8,-,N/A,,Clear,270,2013-07-03 03:15:00
10:35 PM,68.0,64.4,88,30.03,10.0,West,3.5,-,N/A,,Clear,270,2013-07-03 03:35:00
10:55 PM,67.3,64.4,90,30.03,10.0,Calm,Calm,-,N/A,,Clear,0,2013-07-03 03:55:00
11:15 PM,66.4,64.4,93,30.04,10.0,Calm,Calm,-,N/A,,Clear,0,2013-07-03 04:15:00
11:35 PM,66.2,64.8,95,30.04,10.0,Calm,Calm,-,N/A,,Clear,0,2013-07-03 04:35:00
11:55 PM,66.0,64.0,93,30.03,10.0,Calm,Calm,-,N/A,,Clear,0,2013-07-03 04:55:00